Flag for Netherlands Weather past 2 weeks in Almere, Netherlands

Now
57 °F

Clear.


Feels Like: 57 °F
Forecast: 57 / 66 °F
Wind: 2 mph from North

Location: Amsterdam Schiphol Airport

Current Time: Jul 7, 2015 at 4:39:03 AM

Latest Report: Jul 7, 2015 at 3:55 AM


Visibility: 10 mi

Pressure: 29.95 "Hg

Humidity: 82%

Dew point: 52 °F

Location of AlmereLocation

Historic Weather in Almere — Graph

°F

Almere temperature yesterday

Maximum temperature yesterday: 72 °F (at 5:55 PM)
Minimum temperature yesterday: 57 °F (at 5:55 AM)
Average temperature yesterday: 65 °F

Past Weeks' High & Low Weather Summary

 TemperatureHumidityPressure
High91 °F (Jul 1, 3:55 PM)100% (Jun 30, 2:55 AM)30.24 "Hg (Jun 30, 2:55 AM)
Low50 °F (Jun 22, 10:55 PM)23% (Jun 26, 4:55 PM)29.68 "Hg (Jun 22, 7:25 PM)
Average67 °F69%30.06 "Hg
* Reported Jun 22 3:25 AM — Jul 7 3:25 AM, Almere, Weather by CustomWeather, © 2015

Note: Actual official high and low records may vary slightly from our data, if they occured in-between our weather recording intervals... More about our weather records

Advertising

Almere weather history for previous 24 hours

 ConditionsComfort  
Time TempWeatherWind HumidityBarometerVisibility
3:25 AM
Tue, Jul 7
59 °FClear.1 mph88%29.95 "Hg10 mi
2:55 AM57 °FClear.3 mph88%29.98 "Hg10 mi
2:25 AM59 °FClear.2 mph82%29.98 "Hg10 mi
1:55 AM59 °FClear.2 mph82%29.98 "Hg10 mi
1:25 AM57 °FClear.3 mph88%30.01 "Hg10 mi
12:55 AM59 °FClear.3 mph77%30.01 "Hg10 mi
12:25 AM61 °FClear.3 mph72%30.01 "Hg10 mi
11:55 PM
Mon, Jul 6
59 °FClear.3 mph77%30.04 "Hg10 mi
10:55 PM63 °FSunny.1 mph64%30.04 "Hg10 mi
10:25 PM64 °FPassing clouds.3 mph60%30.04 "HgN/A
9:55 PM64 °FPassing clouds.5 mph60%30.04 "HgN/A
9:25 PM66 °FPassing clouds.7 mph56%30.04 "HgN/A
8:55 PM66 °FSunny.9 mph52%30.07 "Hg10 mi
8:25 PM68 °FPassing clouds.12 mph53%30.07 "HgN/A
7:55 PM68 °FPassing clouds.13 mph56%30.07 "HgN/A
7:25 PM68 °FPassing clouds.15 mph60%30.09 "HgN/A
6:55 PM70 °FPassing clouds.10 mph60%30.09 "HgN/A
6:25 PM70 °FPassing clouds.12 mph57%30.09 "HgN/A
5:55 PM72 °FPassing clouds.14 mph53%30.09 "HgN/A
5:25 PM70 °FPassing clouds.12 mph53%30.09 "HgN/A
4:55 PM70 °FPassing clouds.15 mph46%30.12 "HgN/A
4:25 PM70 °FPassing clouds.17 mph50%30.12 "HgN/A
3:55 PM70 °FPassing clouds.17 mph53%30.12 "HgN/A
3:25 PM70 °FPassing clouds.17 mph53%30.12 "HgN/A
2:55 PM70 °FPassing clouds.15 mph57%30.12 "HgN/A
2:25 PM70 °FPassing clouds.16 mph57%30.12 "HgN/A
1:55 PM70 °FPassing clouds.16 mph60%30.12 "HgN/A
1:25 PM70 °FPassing clouds.15 mph53%30.12 "HgN/A
12:55 PM70 °FPassing clouds.16 mph60%30.12 "HgN/A
12:25 PM68 °FPassing clouds.17 mph64%30.12 "HgN/A
11:55 AM66 °FPassing clouds.16 mph68%30.12 "HgN/A
11:25 AM68 °FPassing clouds.15 mph64%30.12 "HgN/A
10:55 AM68 °FPassing clouds.15 mph64%30.12 "HgN/A
10:25 AM66 °FPassing clouds.13 mph68%30.12 "HgN/A
9:55 AM66 °FPassing clouds.15 mph68%30.12 "HgN/A
9:25 AM66 °FPassing clouds.16 mph68%30.12 "HgN/A
8:55 AM64 °FScattered clouds.14 mph73%30.12 "HgN/A
8:25 AM63 °FScattered clouds.14 mph83%30.12 "HgN/A
7:55 AM64 °FPassing clouds.10 mph73%30.12 "HgN/A
7:25 AM63 °FPassing clouds.9 mph83%30.09 "HgN/A
6:55 AM61 °FPassing clouds.8 mph88%30.09 "HgN/A
6:25 AM59 °FClear.8 mph88%30.09 "Hg10 mi
5:55 AM57 °FClear.9 mph94%30.09 "Hg10 mi
5:25 AM59 °FPassing clouds.9 mph88%30.09 "HgN/A
4:55 AM61 °FClear.9 mph83%30.09 "Hg10 mi
4:25 AM61 °FClear.10 mph77%30.07 "Hg10 mi
Weather by CustomWeather, © 2015

See weather overviewHow to use our weather pages